Dewpoint
46 46 47 46 47 47 47 47 46 47 46 46 45 45 46 48 49 44 36 36 39 41 29 25 14 11 29 28 28 32 29 28 27 24 23 23 22 21 18 9 9 10 12 42 47
45 46 47 47 47 47 46 46 46 45 45 45 45 45 46 49 46 41 41 40 40 39 30 23 10 8 29 28 26 24 26 28 27 26 24 22 21 20 20 17 10 12 17 41 44
46 47 47 46 44 44 45 44 44 44 45 44 44 45 48 50 42 34 46 44 44 49 35 31 28 11 13 27 27 24 21 23 23 27 27 24 22 21 21 19 14 15 17 18 31
47 46 44 43 43 43 43 45 44 44 45 45 44 46 48 48 4 31 42 45 43 43 38 29 27 25 12 13 19 19 22 21 21 21 23 23 22 21 22 22 23 21 20 20 21
44 43 43 43 43 42 43 45 44 44 44 44 45 47 48 38 37 36 35 34 41 38 35 32 29 27 22 14 13 13 14 17 18 19 19 20 19 20 21 22 21 22 22 21 23
43 43 43 43 43 42 43 44 45 44 45 46 46 48 45 20 25 27 25 25 21 21 29 33 28 24 22 21 18 15 14 13 13 16 14 14 18 17 19 18 18 19 20 22 23
43 43 43 43 42 43 43 44 45 45 45 46 48 48 41 29 31 28 21 16 16 16 13 10 10 11 18 19 22 20 18 19 16 15 13 13 11 12 17 18 18 18 20 20 21
44 43 43 42 43 44 44 45 46 45 45 47 49 46 37 37 32 25 20 18 18 19 18 16 13 10 10 16 18 19 20 18 19 17 17 14 12 13 18 18 18 19 20 21 22
44 43 42 43 44 45 45 45 45 45 45 47 46 45 40 30 25 16 16 16 14 24 25 23 22 12 8 10 14 19 17 18 18 19 17 14 13 15 17 17 18 19 20 21 21
43 42 41 42 43 43 44 44 44 45 43 43 41 41 41 26 12 16 17 18 16 10 8 15 23 21 11 8 9 15 18 19 18 18 17 15 12 10 11 13 12 14 18 19 22
41 41 41 41 41 42 42 38 25 32 35 32 31 29 27 20 6 9 16 18 20 14 8 7 14 21 14 10 10 11 13 10 10 11 13 11 7 8 9 10 9 11 14 11 16
41 40 40 40 40 42 40 27 24 26 24 23 21 19 17 12 11 11 17 18 14 12 8 6 6 12 21 16 11 10 8 7 8 11 11 10 8 9 8 7 7 7 8 8 9
40 40 40 40 41 39 32 24 30 34 27 21 19 17 17 14 10 15 19 19 17 15 15 14 10 11 11 14 16 15 10 6 7 12 12 12 11 9 9 8 7 8 4 7 9
39 39 40 41 40 36 27 28 30 36 27 19 14 15 22 21 17 15 16 13 14 12 10 12 14 14 13 13 8 3 12 11 7 8 11 13 10 10 7 7 8 8 12 13 14
39 40 40 40 36 30 30 32 31 36 7 16 16 22 20 14 14 9 8 4 1 -0 -2 -2 1 7 10 11 12 12 8 17 11 10 14 13 11 10 12 11 13 18 13 13 19
40 40 39 37 39 33 35 35 35 29 16 0 15 14 8 10 8 7 5 5 3 -1 -5 -6 7 15 18 19 14 11 13 20 25 17 13 15 14 12 12 13 15 33 40 43 44
39 39 38 36 33 37 37 34 27 22 1 4 6 7 6 5 4 5 12 11 9 6 10 16 17 18 19 17 19 20 14 19 19 19 17 16 15 15 16 16 28 40 41 43 44
38 39 38 36 38 39 36 29 17 10 6 7 7 6 4 4 5 6 7 9 9 19 21 19 17 19 21 20 24 18 16 22 14 16 17 18 15 15 17 23 44 42 42 43 44
38 36 38 38 38 39 33 24 13 6 7 6 6 4 4 6 6 7 10 6 11 26 19 19 13 19 19 25 27 26 24 22 27 24 25 24 25 30 37 39 41 41 41 41 41
35 36 34 36 37 37 31 23 11 8 7 6 4 6 6 6 7 12 14 14 18 23 27 24 18 16 16 28 31 27 29 24 29 21 19 27 30 29 34 36 40 40 39 39 39
34 31 35 35 38 34 24 21 10 7 7 6 6 5 7 7 10 12 12 16 18 23 24 22 22 19 24 26 27 30 27 28 30 24 24 23 27 33 35 40 39 38 37 37 36
35 29 33 34 31 29 22 12 10 9 10 10 8 10 11 12 12 12 13 12 15 24 20 29 27 22 20 22 32 31 29 29 23 21 23 26 27 36 39 40 36 36 36 35 34
33 28 31 35 27 23 13 10 9 9 10 12 16 18 16 17 16 19 21 22 28 27 22 30 25 18 15 26 29 28 27 27 28 31 26 24 26 38 38 34 33 33 34 33 32
35 23 25 31 22 21 19 17 13 17 17 19 17 17 18 20 20 21 21 21 26 28 28 33 27 21 15 18 23 26 27 27 27 24 29 29 29 31 31 30 30 30 31 30 30
35 29 24 22 21 20 20 21 19 17 21 20 18 22 21 19 20 19 21 26 26 27 30 31 25 26 25 24 26 27 28 32 31 32 29 27 25 30 29 28 28 28 28 27 27
26 28 15 27 25 14 22 21 17 19 23 21 23 22 23 22 23 26 27 26 28 32 32 32 26 31 29 32 32 30 32 32 31 30 30 28 25 30 27 26 25 25 25 25 25
31 26 26 21 18 23 26 20 17 23 23 22 25 27 23 24 31 31 30 30 29 28 27 30 29 28 25 30 29 27 29 26 26 26 26 23 25 28 24 23 24 24 24 24 24
Wind_Speed
8 9 10 11 12 14 17 18 19 19 19 20 20 20 21 22 24 13 11 15 7 11 3 7 11 12 10 6 8 13 22 31 24 24 28 23 30 30 16 15 5 2 2 16 18
7 10 10 11 14 16 17 18 19 21 21 20 21 20 21 21 15 18 17 11 4 4 4 7 8 12 12 7 5 8 20 22 17 22 23 25 26 23 20 23 10 5 2 19 20
8 9 10 13 14 16 17 19 20 22 22 21 19 19 19 19 7 5 6 12 6 8 5 9 12 14 18 18 19 17 29 20 23 25 25 23 30 18 23 18 15 9 12 10 18
6 8 10 13 14 16 18 19 21 21 21 21 20 19 20 5 2 1 7 5 3 2 3 5 9 13 8 19 19 28 26 29 28 30 34 33 23 27 21 19 19 18 11 12 13
6 7 10 13 15 18 19 20 22 21 21 20 20 16 9 3 12 7 7 5 5 3 6 12 16 15 20 13 24 27 26 25 24 27 29 26 30 28 31 16 25 23 20 19 16
7 8 10 14 17 20 21 22 21 22 22 20 16 9 4 9 7 15 12 9 9 10 14 17 13 17 19 22 23 15 23 26 27 28 22 23 25 20 22 18 28 31 25 21 21
8 9 11 14 18 21 23 24 23 22 21 18 10 5 7 21 8 10 10 13 12 12 14 16 15 14 16 21 15 22 25 26 30 19 21 18 29 26 15 17 28 33 31 26 28
8 9 12 15 17 21 25 26 25 21 19 14 6 5 10 9 12 11 10 15 16 16 17 15 20 19 8 14 20 25 17 20 20 24 27 19 33 28 18 25 33 30 27 28 34
9 11 12 15 18 23 26 28 29 24 14 9 3 5 10 5 6 12 3 8 16 9 8 11 13 19 13 12 19 15 26 26 31 20 24 21 30 23 19 30 32 30 29 30 32
8 11 14 15 19 24 28 32 25 7 6 8 10 5 11 6 5 5 10 12 11 12 13 12 10 17 11 17 31 11 20 23 29 32 25 29 34 28 21 22 23 23 23 26 19
7 8 13 17 19 23 18 8 6 2 7 11 12 9 11 16 15 7 13 14 9 7 15 16 22 26 17 23 29 28 28 31 30 21 21 29 21 24 24 26 29 27 19 22 24
6 8 10 15 19 22 16 3 5 3 15 15 29 25 26 16 13 14 17 6 8 13 15 15 33 21 19 25 28 31 35 37 32 31 26 26 23 19 20 19 25 23 22 21 20
6 10 11 15 18 10 1 8 9 8 5 15 13 13 5 11 8 12 9 9 12 17 16 23 18 18 23 28 32 32 30 28 28 25 19 18 26 20 25 25 34 28 27 32 28
5 8 13 16 8 6 3 11 8 3 5 5 4 2 6 2 3 9 10 11 19 23 20 22 18 24 28 30 27 30 24 30 31 29 19 9 30 23 19 31 35 35 42 29 21
5 8 13 6 9 6 7 11 9 0 4 11 6 2 3 6 10 3 23 18 21 22 21 30 23 27 33 32 27 32 26 25 29 27 11 18 17 28 18 27 32 29 20 27 17
5 9 13 5 4 7 10 9 4 1 7 4 7 3 5 13 17 20 26 23 24 26 27 28 25 14 19 28 32 32 25 12 25 9 21 22 18 23 25 21 20 13 20 20 20
5 10 10 8 2 9 8 1 3 4 2 6 10 11 17 17 20 21 12 15 14 14 17 17 19 22 25 31 32 24 25 10 8 7 23 13 17 31 19 28 6 9 24 23 25
6 11 8 4 4 8 4 2 5 3 7 10 15 14 8 13 12 20 19 16 18 9 9 9 21 4 14 18 22 26 18 10 8 12 17 17 13 17 18 10 21 15 26 28 27
6 0 4 3 3 6 1 2 3 7 10 13 14 9 11 24 20 20 21 21 13 5 3 7 16 26 29 21 23 9 11 28 19 13 6 6 12 6 27 20 21 23 27 25 23
2 3 4 3 2 2 3 2 3 10 10 8 5 7 15 17 15 14 10 13 19 7 5 6 24 9 15 20 9 4 3 5 12 4 6 2 5 7 17 22 7 24 26 25 26
1 3 2 3 1 3 2 2 4 9 4 3 9 13 14 17 13 14 8 19 16 7 8 11 9 19 18 4 9 2 5 10 13 7 3 3 6 4 13 15 23 25 26 24 26
3 4 5 1 2 4 3 2 1 3 7 10 6 12 12 15 19 18 18 16 16 2 7 6 6 13 23 25 10 17 16 18 4 2 9 3 2 9 10 9 23 27 25 22 26
1 5 3 2 1 3 4 4 3 4 7 10 7 11 19 16 16 8 15 14 11 5 5 4 5 10 16 4 6 6 13 13 8 8 5 2 3 11 15 26 27 26 24 28 26
1 5 2 1 2 2 5 5 7 11 9 13 16 15 12 15 15 10 16 9 8 5 10 3 9 15 15 8 12 9 23 16 9 8 0 6 14 21 22 24 27 28 26 23 23
3 3 1 5 4 8 2 2 6 7 4 11 5 13 15 9 21 10 15 14 10 13 5 4 11 17 28 28 19 19 26 17 11 4 3 16 26 16 21 21 21 20 21 24 25
4 1 2 6 6 4 2 3 7 6 3 7 8 15 16 18 18 18 14 11 9 6 10 5 7 13 30 24 20 8 15 25 16 18 14 15 18 13 17 18 20 21 23 23 23
4 1 2 8 8 5 7 6 4 5 5 7 12 16 14 14 15 20 17 20 22 22 19 6 5 8 18 28 19 17 23 26 25 27 16 19 11 9 15 20 22 22 22 22 22
Wind_Direction
302 304 303 308 316 319 318 318 316 316 318 318 319 321 323 325 316 303 242 230 204 208 308 277 283 270 238 249 258 252 239 249 251 257 271 287 287 292 298 264 254 321 27 145 134
295 306 304 308 313 313 312 313 314 313 313 315 317 320 324 328 309 277 234 247 190 176 255 250 256 248 224 228 238 231 242 246 244 264 280 281 283 304 322 313 278 290 39 141 147
294 301 306 310 311 311 313 313 311 311 312 314 316 321 323 324 304 269 153 197 206 192 239 281 283 249 237 226 229 239 251 267 272 277 270 277 294 299 307 309 278 298 296 204 173
284 300 307 309 312 311 309 307 306 307 310 312 316 321 315 280 321 38 149 146 128 219 235 271 264 254 247 248 236 241 242 240 250 255 264 271 278 282 286 290 301 313 304 299 293
279 297 304 306 310 309 306 306 306 308 306 310 313 322 324 252 253 179 178 180 196 187 241 245 261 255 244 247 246 255 253 256 258 251 254 261 261 271 275 304 310 301 309 301 291
276 294 303 306 309 307 305 306 305 307 308 306 305 314 256 273 244 164 190 200 231 228 244 255 267 282 282 262 254 260 263 263 260 263 264 270 266 273 275 303 296 293 286 288 290
275 294 305 308 308 307 306 306 305 307 306 302 298 250 257 245 274 302 229 205 223 262 285 296 302 316 309 298 288 272 279 287 275 272 271 271 276 258 258 272 271 271 281 282 274
270 292 304 307 308 307 305 305 302 300 298 291 283 249 258 265 260 266 279 263 250 234 234 260 288 293 286 306 298 288 284 269 269 252 263 257 263 262 253 249 254 257 262 266 265
279 298 305 307 312 307 308 305 296 291 272 276 263 202 261 282 223 237 245 328 341 330 305 263 249 262 286 293 287 254 255 255 275 256 262 256 262 267 252 249 246 248 253 249 263
276 299 307 313 314 310 315 305 288 294 239 224 252 237 254 231 27 340 326 307 283 299 313 291 251 247 234 230 237 255 237 255 254 261 252 256 256 264 262 270 246 253 257 254 255
275 298 311 316 317 318 333 346 348 324 238 216 192 218 283 307 331 313 292 252 266 234 261 272 261 235 237 230 246 260 267 275 269 275 254 247 260 276 251 266 268 261 262 276 286
277 298 307 316 318 319 311 27 58 233 304 256 255 269 276 268 273 293 264 235 256 259 245 249 255 270 250 242 247 247 250 258 270 275 277 284 284 280 282 273 274 265 269 267 272
288 306 315 317 315 312 123 42 41 34 269 297 243 233 250 205 238 263 289 271 258 269 264 261 266 285 268 262 253 250 258 267 267 270 249 286 292 287 277 276 274 275 260 263 262
289 307 314 327 308 317 89 30 358 56 326 240 173 170 113 213 260 272 268 276 275 268 274 275 288 289 287 281 275 276 261 259 267 269 258 258 275 269 270 257 267 268 265 237 234
275 307 312 323 306 12 21 10 336 52 321 151 108 112 67 158 331 292 333 317 298 288 282 269 269 268 271 277 288 278 277 297 269 263 255 250 266 274 262 274 279 289 236 227 230
304 313 316 336 173 334 359 339 1 77 249 133 135 95 7 342 330 309 291 271 267 282 280 276 280 266 277 289 283 283 287 237 278 292 250 245 239 272 252 252 287 143 87 76 54
305 309 309 322 22 340 336 37 80 207 216 34 10 360 336 317 292 292 342 333 316 312 299 313 297 293 289 289 282 281 268 257 239 225 246 226 235 241 262 252 263 73 73 57 47
313 314 290 307 342 312 331 135 193 344 21 20 356 327 306 321 343 344 337 320 317 357 328 314 311 324 319 314 281 263 227 212 206 218 255 222 248 245 248 237 107 42 71 53 37
306 109 265 162 360 4 48 145 359 26 16 356 355 354 348 345 337 337 333 305 330 41 334 313 280 317 291 310 289 213 186 204 261 298 258 231 259 31 0 59 23 88 64 54 39
14 243 156 109 38 57 90 252 54 51 16 4 348 329 319 317 317 330 319 305 342 23 67 295 302 297 307 348 293 238 121 199 234 271 246 220 280 86 36 20 358 57 58 48 36
199 160 246 180 78 69 142 241 36 11 25 332 301 300 303 308 303 298 289 314 297 345 357 301 259 286 302 229 234 34 215 226 222 217 280 301 74 69 38 20 61 62 55 46 38
250 134 177 158 39 240 202 32 27 312 275 273 277 290 305 315 307 306 296 287 307 73 311 14 273 279 283 269 268 250 208 214 163 247 237 143 24 312 347 55 53 54 51 50 41
189 126 159 144 118 275 93 265 193 284 335 324 322 332 322 315 306 292 297 304 34 19 349 3 276 318 318 245 242 266 217 207 172 30 322 29 117 336 37 41 39 37 34 35 28
342 109 121 172 207 358 42 5 354 350 336 352 319 299 322 307 303 290 286 299 339 261 271 262 230 228 241 281 333 315 314 192 141 177 61 70 60 41 37 30 24 21 23 23 24
36 145 154 181 133 96 77 276 290 329 2 317 306 338 328 306 312 284 322 329 314 305 280 227 262 234 242 252 273 279 287 74 74 54 296 92 58 37 34 29 27 20 20 19 18
110 52 78 117 125 140 169 275 296 324 338 307 307 318 314 297 289 306 327 325 278 307 332 247 285 294 278 219 226 235 91 84 47 33 69 70 50 48 41 37 33 26 23 20 16
333 83 94 178 192 174 196 230 276 160 273 297 315 308 297 290 314 286 272 261 253 273 287 262 277 317 97 112 141 77 97 92 79 43 43 46 2 37 62 52 36 27 25 20 16